Date String (YYYY-MM-DD hh:mm:ss) UTC,Instrument flags,Ambient pressure (hPa),Sample flow (lpm),Bypass flow (lpm),Sample temperature (°C),Ambient temperature (°C),ASC tube jacket temperature (°C),LED temperature (°C),Box temperature (°C),Sample RH (%),Span deviation,Mass concentration (μg/m³),Mass concentration (μg/m³),Mass concentration (μg/m³)
DateTimeUTC,F1_M11,P_M11,Q1_M11,Q2_M11,T1_M11,T2_M11,T3_M11,T4_M11,T5_M11,U1_M11,ZSPAN_M11,X0_M11,X2_M11,X1_M11
2022-12-06 20:00:00,,0819.2,5.00,0.00,22.9,21.4,00.0,31.9,24.5,09.2,0000.0,0010.89,0007.19,0006.95
2022-12-06 20:01:00,,0819.2,4.99,0.00,22.9,21.4,00.0,31.9,24.6,08.6,0000.0,0010.99,0007.27,0007.06
2022-12-06 20:02:00,,0819.3,5.00,0.00,22.9,21.4,00.0,31.9,24.6,08.6,0000.0,0010.88,0007.18,0006.98
2022-12-06 20:03:00,,0819.2,5.00,0.00,22.9,21.4,00.0,31.9,24.6,09.0,0000.0,0010.80,0007.14,0006.95
2022-12-06 20:04:00,,0819.3,5.00,0.00,22.9,21.4,00.0,31.9,24.6,09.0,0000.0,0010.91,0007.30,0007.13
2022-12-06 20:05:00,,0819.2,5.01,0.00,22.9,21.4,00.0,31.9,24.7,08.8,0000.0,0010.91,0007.32,0007.17
2022-12-06 20:06:00,,0819.2,5.00,0.00,22.9,21.4,00.0,31.8,24.7,08.9,0000.0,0011.13,0007.48,0007.33
2022-12-06 20:07:00,,0819.2,5.00,0.00,22.9,21.3,00.0,31.8,24.6,08.9,0000.0,0011.00,0007.38,0007.24
2022-12-06 20:08:00,,0819.2,4.99,0.00,22.8,21.3,00.0,31.8,24.5,09.0,0000.0,0010.60,0007.23,0007.05
2022-12-06 20:09:00,,0819.2,4.99,0.00,22.8,21.3,00.0,31.8,24.5,09.0,0000.0,0010.62,0007.24,0007.07
2022-12-06 20:10:00,,0819.2,4.99,0.00,22.8,21.3,00.0,31.8,24.5,08.8,0000.0,0010.62,0007.19,0007.01
2022-12-06 20:11:00,,0819.2,5.01,0.00,22.8,21.3,00.0,31.8,24.5,09.0,0000.0,0010.25,0006.91,0006.73
2022-12-06 20:12:00,,0819.3,5.01,0.00,22.8,21.3,00.0,31.8,24.5,09.1,0000.0,0010.95,0007.39,0007.17
2022-12-06 20:13:00,,0819.2,4.99,0.00,22.8,21.3,00.0,31.8,24.5,09.3,0000.0,0012.20,0008.43,0008.19
2022-12-06 20:14:00,,0819.3,4.99,0.00,22.8,21.3,00.0,31.8,24.5,08.9,0000.0,0012.81,0008.98,0008.77
2022-12-06 20:15:00,,0819.3,4.99,0.00,22.8,21.3,00.0,31.8,24.5,09.5,0000.0,0013.18,0009.29,0009.06
2022-12-06 20:16:00,,0819.2,4.99,0.00,22.8,21.3,00.0,31.8,24.6,09.4,0000.0,0014.06,0009.92,0009.67
2022-12-06 20:17:00,,0819.3,5.00,0.00,22.8,21.3,00.0,31.7,24.5,09.5,0000.0,0014.99,0010.55,0010.29
2022-12-06 20:18:00,,0819.3,5.00,0.00,22.8,21.3,00.0,31.7,24.5,09.3,0000.0,0015.71,0011.23,0010.97
2022-12-06 20:19:00,,0819.4,5.00,0.00,22.7,21.3,00.0,31.7,24.5,09.3,0000.0,0016.25,0011.77,0011.54
2022-12-06 20:20:00,,0819.2,5.00,0.00,22.7,21.3,00.0,31.7,24.4,09.4,0001.2,0016.66,0012.17,0011.95
2022-12-06 20:21:00,,0819.3,5.01,0.00,22.7,21.3,00.0,31.7,24.4,09.3,0003.9,0017.89,0012.53,0012.32
2022-12-06 20:22:00,,0819.4,5.00,0.00,22.7,21.3,00.0,31.7,24.5,09.3,0002.4,0018.14,0012.70,0012.48
2022-12-06 20:23:00,,0819.4,5.00,0.00,22.7,21.3,00.0,31.7,24.4,09.5,0003.8,0018.27,0012.89,0012.66
2022-12-06 20:24:00,,0819.4,5.00,0.00,22.7,21.3,00.0,31.7,24.4,09.5,0003.6,0018.15,0012.80,0012.59
2022-12-06 20:25:00,,0819.4,5.00,0.00,22.7,21.3,00.0,31.7,24.5,09.2,0000.0,0018.15,0012.81,0012.56
2022-12-06 20:26:00,,0819.4,4.99,0.00,22.7,21.3,00.0,31.7,24.4,09.3,0001.5,0018.16,0012.83,0012.58
2022-12-06 20:27:00,,0819.4,4.99,0.00,22.7,21.3,00.0,31.7,24.4,09.4,0000.7,0017.84,0012.67,0012.43
2022-12-06 20:28:00,,0819.5,5.00,0.00,22.7,21.3,00.0,31.7,24.4,09.5,0000.0,0017.33,0012.46,0012.24
2022-12-06 20:29:00,,0819.4,4.99,0.00,22.7,21.3,00.0,31.7,24.5,09.3,0000.0,0016.97,0012.15,0011.96
2022-12-06 20:30:00,,0819.5,5.00,0.00,22.7,21.4,00.0,31.7,24.5,09.0,0000.0,0016.76,0011.75,0011.56
2022-12-06 20:31:00,,0819.5,5.00,0.00,22.7,21.3,00.0,31.7,24.5,09.2,0000.0,0016.25,0011.24,0011.05
2022-12-06 20:32:00,,0819.5,5.01,0.00,22.7,21.3,00.0,31.7,24.5,09.3,0000.0,0015.02,0010.94,0010.76
2022-12-06 20:33:00,,0819.5,5.00,0.00,22.7,21.4,00.0,31.7,24.5,09.0,0000.0,0014.37,0010.44,0010.26
2022-12-06 20:34:00,,0819.6,5.00,0.00,22.7,21.4,00.0,31.7,24.4,09.1,0000.0,0013.84,0010.01,0009.85
2022-12-06 20:35:00,,0819.5,5.00,0.00,22.7,21.4,00.0,31.7,24.5,09.2,0000.0,0013.50,0009.72,0009.55
2022-12-06 20:36:00,,0819.5,4.99,0.00,22.7,21.4,00.0,31.7,24.5,09.2,0000.0,0013.31,0009.55,0009.36
2022-12-06 20:37:00,,0819.5,5.00,0.00,22.7,21.4,00.0,31.7,24.5,09.0,0000.0,0012.86,0009.17,0009.02
2022-12-06 20:38:00,,0819.5,5.00,0.00,22.7,21.4,00.0,31.7,24.5,08.9,0000.0,0012.09,0008.51,0008.37
2022-12-06 20:39:00,,0819.4,5.00,0.00,22.7,21.4,00.0,31.7,24.5,09.1,0000.0,0011.56,0008.06,0007.91
2022-12-06 20:40:00,,0819.4,5.00,0.00,22.7,21.4,00.0,31.7,24.5,09.2,0000.0,0011.38,0007.91,0007.74
2022-12-06 20:41:00,,0819.5,5.00,0.00,22.7,21.4,00.0,31.7,24.5,09.2,0000.0,0011.42,0008.11,0007.95
2022-12-06 20:42:00,,0819.6,5.00,0.00,22.7,21.4,00.0,31.7,24.5,09.3,0000.0,0011.61,0008.35,0008.17
2022-12-06 20:43:00,,0819.5,5.00,0.00,22.7,21.4,00.0,31.7,24.5,09.3,0000.0,0011.43,0008.19,0008.01
2022-12-06 20:44:00,,0819.5,5.00,0.00,22.7,21.4,00.0,31.7,24.5,09.4,0000.0,0012.27,0008.45,0008.25
2022-12-06 20:45:00,,0819.6,5.00,0.00,22.7,21.4,00.0,31.7,24.5,09.3,0000.0,0012.70,0008.64,0008.43
2022-12-06 20:46:00,,0819.5,4.99,0.00,22.7,21.4,00.0,31.7,24.5,09.4,0000.0,0012.50,0008.52,0008.34
2022-12-06 20:47:00,,0819.6,4.99,0.00,22.7,21.4,00.0,31.7,24.5,09.3,0000.0,0012.49,0008.54,0008.38
2022-12-06 20:48:00,,0819.6,5.02,0.00,22.7,21.3,00.0,31.7,24.5,09.4,0000.0,0012.83,0008.74,0008.56
2022-12-06 20:49:00,,0819.6,5.00,0.00,22.7,21.4,00.0,31.7,24.5,09.6,0000.0,0013.25,0009.06,0008.88
2022-12-06 20:50:00,,0819.6,4.99,0.00,22.7,21.4,00.0,31.7,24.5,09.5,0000.0,0013.48,0009.24,0009.03
2022-12-06 20:51:00,,0819.7,4.99,0.00,22.7,21.3,00.0,31.7,24.4,09.4,0000.0,0013.28,0009.08,0008.87
2022-12-06 20:52:00,,0819.6,5.00,0.00,22.7,21.3,00.0,31.7,24.4,09.5,0000.0,0013.07,0008.90,0008.69
2022-12-06 20:53:00,,0819.6,5.00,0.00,22.7,21.4,00.0,31.7,24.4,09.7,0000.0,0013.12,0008.95,0008.74
2022-12-06 20:54:00,,0819.7,5.01,0.00,22.7,21.3,00.0,31.7,24.4,09.5,0000.0,0013.42,0009.20,0008.99
2022-12-06 20:55:00,,0819.8,5.00,0.00,22.7,21.3,00.0,31.7,24.5,09.7,0000.0,0012.78,0009.15,0008.95
2022-12-06 20:56:00,,0819.7,5.00,0.00,22.7,21.3,00.0,31.7,24.4,09.8,0000.0,0012.52,0009.08,0008.88
2022-12-06 20:57:00,,0819.7,5.00,0.00,22.7,21.4,00.0,31.7,24.5,09.6,0000.0,0012.60,0009.03,0008.83
2022-12-06 20:58:00,,0819.7,5.00,0.00,22.7,21.4,00.0,31.7,24.5,09.3,0000.0,0012.39,0008.77,0008.57
2022-12-06 20:59:00,,0819.7,5.00,0.00,22.7,21.4,00.0,31.7,24.5,09.3,0000.0,0011.83,0008.41,0008.23
